Location: *
(47.6569°N, 7.4256°E)
Time: 02:32:57
(UTC+00:00)

CZ-4B R/B - Pass Details

Date: 14 December 2019
Orbit: 392 x 469 km, 97.6° (Epoch: 28 January)

Event Time Altitude Azimuth Distance (km) Brightness Sun altitude
Rises 16:34:07 0° 3° (N) 2,522 4.9 -8.9°
Reaches altitude 10° 16:36:23 10° 351° (N) 1,634 4.1 -9.3°
Maximum altitude 16:39:23 27° 292° (WNW) 932 3.5 -9.7°
Drops below altitude 10° 16:42:19 10° 233° (SW) 1,599 5.6 -10.2°
Sets 16:44:31 0° 221° (SW) 2,455 6.4 -10.5°
